• In Hungary
  • List of Countries
  • For 7 days
  • Water Temperature
  • Satellite Maps
  • Weather Map
  • News
  • Weather Widgets
  • user-avatar
    Login

    Hourly Weather Lorenki

    Today, 17 July, Tuesday

    Time Temperature Precipitation Wind Pressure Humidity
    00:00 +18°C° 0.4 mm 3 mps 745 mmHg 94%
    01:00 +18°C° 0 mm 2 mps 745 mmHg 96%
    02:00 +18°C° 1.4 mm 2 mps 745 mmHg 97%
    03:00 +18°C° 1.4 mm 2 mps 745 mmHg 97%
    04:00 +18°C° 1.4 mm 2 mps 744 mmHg 97%
    05:00 +19°C° 1.6 mm 3 mps 744 mmHg 96%
    06:00 +19°C° 1.6 mm 3 mps 744 mmHg 95%
    07:00 +19°C° 1.6 mm 3 mps 744 mmHg 94%
    08:00 +20°C° 1.3 mm 3 mps 744 mmHg 91%
    09:00 +20°C° 1.3 mm 3 mps 744 mmHg 88%
    10:00 +21°C° 1.3 mm 3 mps 743 mmHg 85%
    11:00 +22°C° 0.6 mm 4 mps 743 mmHg 81%
    12:00 +23°C° 0.6 mm 4 mps 743 mmHg 78%
    13:00 +25°C° 0.6 mm 5 mps 743 mmHg 74%
    14:00 +25°C° 0.6 mm 5 mps 743 mmHg 75%
    15:00 +25°C° 0.6 mm 5 mps 743 mmHg 75%
    16:00 +25°C° 0.6 mm 5 mps 743 mmHg 76%
    17:00 +23°C° 0.5 mm 4 mps 743 mmHg 81%
    18:00 +22°C° 0.5 mm 4 mps 743 mmHg 85%
    19:00 +21°C° 0.5 mm 4 mps 742 mmHg 90%
    20:00 +21°C° 0.6 mm 4 mps 742 mmHg 92%
    21:00 +20°C° 0.6 mm 4 mps 742 mmHg 94%
    22:00 +20°C° 0.6 mm 4 mps 743 mmHg 96%
    23:00 +20°C° 0.9 mm 5 mps 742 mmHg 96%

    Tomorrow, 18 July, Wednesday

    Time Temperature Precipitation Wind Pressure Humidity
    00:00 +20°C° 0.9 mm 5 mps 742 mmHg 96%
    01:00 +20°C° 0.9 mm 5 mps 742 mmHg 96%
    02:00 +20°C° 0.2 mm 5 mps 742 mmHg 96%
    03:00 +20°C° 0.2 mm 5 mps 742 mmHg 97%
    04:00 +20°C° 0.2 mm 5 mps 742 mmHg 97%
    05:00 +20°C° 0.2 mm 5 mps 742 mmHg 95%
    06:00 +21°C° 0.2 mm 4 mps 742 mmHg 94%
    07:00 +21°C° 0.2 mm 4 mps 743 mmHg 92%
    08:00 +22°C° 0.3 mm 4 mps 743 mmHg 88%
    09:00 +23°C° 0.3 mm 4 mps 743 mmHg 85%
    10:00 +25°C° 0.3 mm 4 mps 743 mmHg 81%
    11:00 +26°C° 0.7 mm 4 mps 743 mmHg 77%
    12:00 +27°C° 0.7 mm 4 mps 743 mmHg 74%
    13:00 +28°C° 0.7 mm 4 mps 743 mmHg 71%
    14:00 +28°C° 1 mm 5 mps 744 mmHg 72%
    15:00 +28°C° 1 mm 5 mps 744 mmHg 73%
    16:00 +28°C° 1 mm 5 mps 744 mmHg 73%
    17:00 +27°C° 0.9 mm 5 mps 744 mmHg 78%
    18:00 +26°C° 0.9 mm 5 mps 744 mmHg 83%
    19:00 +23°C° 0.9 mm 5 mps 745 mmHg 88%
    20:00 +23°C° 1.4 mm 5 mps 745 mmHg 90%
    21:00 +22°C° 1.4 mm 5 mps 745 mmHg 92%
    22:00 +21°C° 1.4 mm 5 mps 745 mmHg 93%
    23:00 +21°C° 0.6 mm 5 mps 745 mmHg 94%

    Day after tomorrow, 19 July, Thursday

    Time Temperature Precipitation Wind Pressure Humidity
    00:00 +21°C° 0.6 mm 5 mps 746 mmHg 95%
    01:00 +20°C° 0.6 mm 5 mps 746 mmHg 96%
    02:00 +20°C° 0.5 mm 4 mps 746 mmHg 96%
    03:00 +20°C° 0.5 mm 4 mps 746 mmHg 96%
    04:00 +20°C° 0.5 mm 4 mps 746 mmHg 96%
    05:00 +20°C° 0.3 mm 4 mps 746 mmHg 95%
    06:00 +20°C° 0.3 mm 4 mps 746 mmHg 93%
    07:00 +20°C° 0.3 mm 4 mps 747 mmHg 92%
    08:00 +22°C° 0.2 mm 4 mps 747 mmHg 86%
    09:00 +23°C° 0.2 mm 4 mps 747 mmHg 81%
    10:00 +25°C° 0.2 mm 4 mps 747 mmHg 75%
    11:00 +26°C° 0.2 mm 4 mps 747 mmHg 72%
    12:00 +26°C° 0.2 mm 4 mps 747 mmHg 68%
    13:00 +27°C° 0.2 mm 4 mps 747 mmHg 65%
    14:00 +27°C° 0.3 mm 4 mps 747 mmHg 66%
    15:00 +27°C° 0.3 mm 5 mps 747 mmHg 68%
    16:00 +26°C° 0.3 mm 5 mps 747 mmHg 69%
    17:00 +25°C° 0.2 mm 5 mps 747 mmHg 73%
    18:00 +23°C° 0.2 mm 4 mps 747 mmHg 77%
    19:00 +22°C° 0.2 mm 4 mps 747 mmHg 81%
    20:00 +22°C° 0 mm 4 mps 748 mmHg 84%
    21:00 +21°C° 0 mm 4 mps 748 mmHg 87%
    22:00 +20°C° 0 mm 4 mps 748 mmHg 90%
    23:00 +19°C° 0 mm 3 mps 748 mmHg 91%

    20 July, Friday

    Time Temperature Precipitation Wind Pressure Humidity
    00:00 +18°C° 0 mm 3 mps 748 mmHg 92%
    01:00 +18°C° 0 mm 3 mps 748 mmHg 93%
    02:00 +18°C° 0 mm 3 mps 748 mmHg 94%
    03:00 +17°C° 0 mm 3 mps 748 mmHg 95%
    04:00 +17°C° 0 mm 4 mps 748 mmHg 96%
    05:00 +18°C° 0 mm 4 mps 748 mmHg 93%
    06:00 +19°C° 0 mm 4 mps 748 mmHg 90%
    07:00 +20°C° 0 mm 4 mps 749 mmHg 86%
    08:00 +21°C° 0 mm 4 mps 749 mmHg 81%
    09:00 +22°C° 0 mm 4 mps 749 mmHg 75%
    10:00 +25°C° 0 mm 4 mps 749 mmHg 69%
    11:00 +25°C° 0 mm 5 mps 748 mmHg 66%
    12:00 +26°C° 0 mm 5 mps 748 mmHg 63%
    13:00 +27°C° 0 mm 6 mps 748 mmHg 60%
    14:00 +27°C° 0 mm 6 mps 748 mmHg 61%
    15:00 +27°C° 0 mm 6 mps 748 mmHg 61%
    16:00 +26°C° 0 mm 6 mps 748 mmHg 62%
    17:00 +26°C° 0 mm 5 mps 748 mmHg 67%
    18:00 +25°C° 0 mm 4 mps 748 mmHg 72%
    19:00 +24°C° 0 mm 3 mps 748 mmHg 77%
    20:00 +22°C° 0 mm 3 mps 748 mmHg 80%
    21:00 +21°C° 0 mm 3 mps 748 mmHg 84%
    22:00 +20°C° 0 mm 3 mps 748 mmHg 87%
    23:00 +19°C° 0 mm 3 mps 748 mmHg 89%

    21 July, Saturday

    Time Temperature Precipitation Wind Pressure Humidity
    00:00 +18°C° 0 mm 3 mps 748 mmHg 91%
    01:00 +18°C° 0 mm 3 mps 748 mmHg 93%
    02:00 +17°C° 0 mm 3 mps 748 mmHg 93%
    03:00 +17°C° 0 mm 2 mps 748 mmHg 93%
    04:00 +16°C° 0 mm 2 mps 748 mmHg 94%
    05:00 +17°C° 0 mm 3 mps 748 mmHg 89%
    06:00 +18°C° 0 mm 3 mps 748 mmHg 84%
    07:00 +19°C° 0 mm 3 mps 748 mmHg 79%
    08:00 +21°C° 0 mm 3 mps 748 mmHg 73%
    09:00 +22°C° 0 mm 3 mps 748 mmHg 67%
    10:00 +25°C° 0 mm 4 mps 748 mmHg 60%
    11:00 +26°C° 0 mm 4 mps 748 mmHg 58%
    12:00 +26°C° 0 mm 4 mps 748 mmHg 56%
    13:00 +27°C° 0 mm 4 mps 748 mmHg 54%
    14:00 +27°C° 0 mm 4 mps 748 mmHg 55%
    15:00 +27°C° 0 mm 4 mps 747 mmHg 55%
    16:00 +27°C° 0 mm 4 mps 747 mmHg 56%
    17:00 +26°C° 0 mm 4 mps 747 mmHg 62%
    18:00 +25°C° 0 mm 3 mps 747 mmHg 68%
    19:00 +24°C° 0 mm 3 mps 748 mmHg 73%
    20:00 +22°C° 0 mm 3 mps 748 mmHg 77%
    21:00 +20°C° 0 mm 3 mps 748 mmHg 81%
    22:00 +19°C° 0 mm 3 mps 748 mmHg 85%
    23:00 +19°C° 0 mm 3 mps 748 mmHg 86%

    22 July, Sunday

    Time Temperature Precipitation Wind Pressure Humidity
    00:00 +18°C° 0 mm 2 mps 748 mmHg 87%
    01:00 +17°C° 0 mm 2 mps 748 mmHg 88%
    02:00 +17°C° 0 mm 2 mps 748 mmHg 88%
    03:00 +16°C° 0 mm 2 mps 748 mmHg 88%
    04:00 +16°C° 0 mm 2 mps 748 mmHg 88%
    05:00 +17°C° 0 mm 2 mps 749 mmHg 84%
    06:00 +18°C° 0 mm 2 mps 749 mmHg 81%
    07:00 +19°C° 0 mm 3 mps 749 mmHg 77%
    08:00 +20°C° 0 mm 3 mps 749 mmHg 71%
    09:00 +22°C° 0 mm 4 mps 749 mmHg 66%
    10:00 +23°C° 0 mm 4 mps 749 mmHg 60%
    11:00 +25°C° 0 mm 4 mps 749 mmHg 58%
    12:00 +25°C° 0 mm 5 mps 749 mmHg 56%
    13:00 +26°C° 0 mm 5 mps 748 mmHg 54%
    14:00 +26°C° 0 mm 5 mps 748 mmHg 54%
    15:00 +26°C° 0 mm 5 mps 748 mmHg 55%
    16:00 +26°C° 0 mm 5 mps 748 mmHg 55%
    17:00 +25°C° 0 mm 4 mps 748 mmHg 61%
    18:00 +24°C° 0 mm 3 mps 748 mmHg 66%
    19:00 +22°C° 0 mm 3 mps 749 mmHg 72%
    20:00 +21°C° 0 mm 3 mps 749 mmHg 75%
    21:00 +19°C° 0 mm 3 mps 749 mmHg 79%
    22:00 +18°C° 0 mm 3 mps 749 mmHg 82%
    23:00 +18°C° 0 mm 2 mps 750 mmHg 85%
    Show more